Theta_e
352 350 350 348 350 349 346 345 344 341 338 332 331 328 327 327 328 326 324 321 319 315 310 308 307 306 309 311 311 312 311 310 308 300 302 301 302 303 303 301 300 301 300
352 350 350 349 348 346 344 342 341 338 333 331 328 327 328 328 326 323 322 320 314 309 307 307 305 306 307 307 307 308 304 301 300 301 300 301 302 302 301 297 296 296 300
351 351 349 345 346 344 341 340 339 336 332 329 327 329 328 327 325 322 319 313 309 307 306 305 305 306 302 297 297 296 297 296 298 299 299 300 300 299 296 295 295 296 299
349 348 346 345 343 341 341 338 335 333 330 329 328 328 326 325 322 317 312 309 307 305 305 305 302 296 295 295 295 295 296 296 296 295 296 299 297 296 294 294 295 297 298
344 344 344 342 341 341 337 334 332 329 328 326 326 325 323 321 316 311 308 307 307 309 308 304 301 296 295 295 295 297 298 298 296 295 295 296 296 295 296 295 295 297 297
340 337 340 337 339 336 333 331 328 326 325 325 324 325 321 316 311 308 308 309 310 309 306 303 300 295 294 295 296 298 299 298 297 295 296 296 296 296 296 295 296 297 298
338 338 336 334 333 331 328 327 325 324 324 324 324 321 316 310 307 307 307 306 305 301 299 298 297 294 294 294 294 295 296 298 296 296 296 297 296 296 296 295 296 297 298
334 331 329 329 328 326 327 325 324 324 325 323 320 314 308 305 305 303 303 300 296 295 294 294 293 293 293 293 293 293 294 294 296 297 297 297 296 297 296 296 297 297 297
330 329 328 326 325 326 325 325 324 325 321 317 310 305 302 302 303 301 300 298 296 295 294 293 293 292 292 292 293 293 294 295 296 296 296 297 295 295 295 295 295 297 297
325 325 325 324 324 325 325 324 321 320 315 306 303 302 302 301 300 302 302 301 299 298 297 293 292 292 292 292 293 293 294 295 295 295 295 295 294 294 294 295 295 297 297
323 324 324 321 323 323 323 319 315 312 306 302 301 300 299 298 300 301 301 300 298 297 296 293 292 293 293 293 293 293 294 294 294 294 294 294 294 293 294 294 296 297 296
320 319 320 323 321 319 318 313 310 305 302 300 298 296 296 297 299 300 299 299 298 295 292 293 294 294 295 294 294 294 293 294 294 294 294 294 293 293 293 294 296 296 295
320 318 315 312 313 314 314 308 303 300 298 296 295 295 294 294 294 293 293 293 293 294 295 295 295 295 295 295 295 294 294 293 293 293 294 294 292 293 293 294 295 294 295
312 309 310 312 309 306 302 300 299 299 298 296 295 294 296 296 297 297 296 296 295 295 296 296 295 295 295 294 294 294 293 293 293 293 293 293 291 293 293 294 294 293 295
308 307 305 303 302 302 302 301 301 300 300 300 300 300 300 299 298 297 295 294 295 296 296 295 295 294 294 294 293 293 293 292 292 292 292 291 290 292 293 293 293 293 294
305 303 303 302 302 301 301 301 301 301 301 301 300 298 296 295 292 291 293 295 296 296 295 295 294 294 293 293 293 293 292 291 292 292 291 289 290 292 292 293 292 293 293
303 302 302 302 301 300 300 301 301 300 300 298 294 293 292 291 291 293 294 295 295 295 294 294 293 293 293 293 292 292 292 291 290 290 290 288 290 292 292 292 292 292 293
301 301 301 300 300 300 300 299 299 299 294 292 291 291 291 293 295 296 296 295 295 294 294 293 293 292 292 292 292 291 291 290 289 289 289 288 290 291 291 292 291 292 292
301 298 298 299 298 297 297 296 294 292 291 291 291 291 293 294 295 295 295 295 294 294 293 293 292 292 292 291 291 291 290 289 287 288 287 288 290 291 291 291 290 292 291
299 298 297 297 297 297 296 295 293 292 292 293 294 296 296 296 295 295 294 294 294 293 293 292 292 291 291 291 290 290 289 287 287 287 286 288 290 290 291 290 290 291 290
299 299 300 299 299 298 298 298 298 297 297 297 296 296 296 296 295 294 294 293 293 293 292 291 291 291 290 290 289 288 287 287 287 287 286 288 289 290 290 289 289 290 290
300 301 300 300 300 300 299 299 298 297 296 295 295 295 295 295 295 294 294 293 293 292 291 291 291 290 290 289 288 287 286 286 286 287 286 288 289 289 290 288 289 289 289
300 300 300 300 299 299 298 297 295 294 294 294 295 295 295 294 294 294 293 293 292 292 291 291 290 290 289 289 286 286 286 286 286 286 286 288 289 289 289 288 289 288 289
301 300 299 299 299 298 298 297 296 296 296 296 295 295 295 294 294 293 293 293 292 292 291 291 290 289 289 289 287 285 285 285 286 286 286 288 288 288 288 287 288 288 288
299 299 299 299 299 298 297 297 296 296 296 296 295 295 294 294 294 294 293 293 292 292 291 291 290 289 289 289 288 285 285 286 286 286 286 287 288 287 287 286 287 287 288
299 299 299 298 298 297 297 297 296 296 296 295 295 295 294 294 294 294 294 293 292 292 291 290 290 289 289 289 287 286 285 286 286 286 286 286 287 286 286 286 287 287 287
Wind_Speed
55 55 54 54 53 49 44 38 34 33 33 29 26 24 19 17 14 9 5 3 2 3 5 7 9 11 7 10 6 12 11 16 20 23 23 22 25 27 28 33 27 29 27
58 55 56 53 48 47 42 39 37 36 33 31 26 26 19 14 12 10 6 4 1 2 4 7 8 8 8 11 7 10 10 15 14 23 22 24 24 25 30 32 31 27 26
56 59 61 54 50 46 44 40 39 35 34 30 26 22 18 15 12 8 7 3 1 1 4 6 8 8 10 10 10 12 13 15 15 18 22 20 24 28 32 32 35 31 31
43 64 58 55 56 53 48 45 41 35 32 30 26 22 18 15 12 9 6 4 1 2 4 6 9 11 11 10 11 14 16 19 19 21 21 22 26 32 34 39 39 35 36
53 49 49 53 58 55 50 46 39 35 33 30 26 22 20 17 13 10 6 5 4 6 8 11 13 11 11 10 11 15 19 22 24 26 24 29 30 37 39 40 39 40 38
51 60 51 56 59 55 49 44 40 37 33 29 26 23 20 16 13 11 8 9 9 7 6 7 12 10 11 11 11 13 15 19 22 25 27 30 33 37 38 39 38 39 41
54 61 59 57 55 51 49 45 41 38 34 30 25 21 19 19 16 13 10 9 7 4 2 1 5 10 11 12 11 12 11 15 18 23 27 30 32 34 34 39 39 35 35
55 58 57 56 56 51 47 44 41 35 30 26 24 21 20 20 16 11 8 7 7 7 7 8 9 11 14 15 15 14 14 17 12 20 23 26 28 28 31 33 33 34 31
51 50 50 51 52 48 44 41 37 33 29 25 23 22 20 20 16 13 10 9 10 10 9 10 11 13 16 16 17 18 18 19 21 21 21 20 24 26 29 31 34 37 39
51 51 47 44 45 44 43 40 35 30 27 26 25 22 19 19 18 16 12 9 11 12 10 11 13 14 16 18 21 22 21 22 24 23 22 23 25 28 27 26 32 36 36
50 49 47 46 46 44 42 38 34 31 29 27 26 24 22 19 21 19 15 12 10 7 3 8 14 13 18 25 26 25 25 21 23 24 25 28 30 35 29 27 30 29 34
52 50 48 45 45 43 41 37 31 30 28 26 25 23 20 18 17 15 8 11 10 4 10 12 18 20 20 24 25 25 25 24 25 27 28 31 34 34 30 30 31 30 25
49 49 49 48 44 39 36 33 31 28 27 26 24 24 22 17 14 11 10 9 11 14 18 18 19 19 20 20 21 22 26 25 26 29 29 31 34 29 30 35 32 34 30
53 52 49 46 41 35 34 31 30 27 25 25 25 24 20 16 15 13 10 10 11 14 14 15 14 14 15 16 18 21 25 24 26 27 29 30 36 30 33 35 35 39 35
54 51 48 46 44 40 36 32 29 24 22 22 21 20 17 14 15 14 8 11 16 15 14 10 12 14 16 18 19 21 24 27 28 29 30 36 36 32 35 35 35 39 38
54 49 47 43 41 39 38 36 27 24 22 19 16 11 17 17 15 14 16 18 17 14 11 12 14 15 17 18 20 21 24 28 26 28 31 36 35 34 36 36 38 39 40
51 49 45 39 38 38 35 33 33 25 20 14 16 17 18 20 20 19 19 18 15 12 13 14 15 16 16 18 20 21 23 26 24 27 31 36 34 34 36 36 41 41 42
45 43 40 38 36 33 29 29 28 24 24 24 21 22 22 21 21 20 18 18 13 13 14 14 14 14 15 17 19 21 22 26 27 26 30 33 34 35 37 37 40 40 43
39 34 32 30 29 30 29 26 25 25 26 27 26 24 23 21 20 17 15 12 12 13 13 13 14 14 15 15 16 18 20 24 26 26 31 31 33 37 36 37 39 38 42
33 32 33 34 32 30 26 24 23 25 24 22 23 21 18 16 13 12 13 12 11 12 12 12 13 13 14 15 16 17 19 24 28 28 31 28 32 35 35 37 38 38 41
33 34 34 30 28 25 24 24 21 19 19 18 16 13 15 12 11 11 11 11 11 10 11 12 11 11 12 13 14 16 21 25 27 29 31 27 31 34 33 37 35 37 38
32 28 28 27 26 24 24 22 20 18 15 16 21 18 15 12 11 11 10 10 10 10 9 10 10 10 12 12 16 18 23 25 27 29 30 26 29 33 32 37 34 37 37
27 27 26 25 24 24 21 18 17 18 19 18 15 13 12 11 11 10 9 9 9 9 9 8 9 9 12 11 18 22 24 26 27 28 28 26 29 33 31 35 33 36 36
26 25 25 26 23 21 20 19 18 17 17 16 14 12 11 10 10 10 9 9 8 8 8 7 9 11 11 12 20 24 23 24 24 26 25 24 28 29 31 31 32 33 34
24 23 22 22 21 21 19 19 18 16 15 14 13 12 11 10 10 9 9 7 7 7 7 8 11 11 10 15 20 23 22 22 24 25 24 21 25 24 29 27 29 32 32
22 22 20 19 20 19 18 17 16 15 15 13 12 12 10 9 8 8 5 6 7 6 7 7 9 10 11 15 20 21 23 23 24 24 23 22 21 23 26 25 26 29 30
Wind_Direction
191 185 179 181 184 174 178 180 177 174 171 172 179 179 178 174 171 169 157 172 246 308 320 324 339 329 348 323 358 324 321 309 310 323 333 341 345 336 321 323 337 326 331
187 182 179 180 170 173 177 169 171 167 167 173 172 174 173 163 158 156 172 198 265 331 335 320 327 326 331 333 325 312 312 320 331 330 339 341 342 327 320 329 335 343 347
188 174 178 176 171 170 166 164 165 168 168 167 165 165 163 164 167 172 193 172 169 312 312 324 342 347 345 351 339 344 339 348 348 339 334 345 330 323 336 343 347 352 346
180 164 159 164 166 163 160 159 162 165 159 158 158 162 161 159 163 165 172 133 131 350 11 9 6 360 355 354 356 359 358 357 353 348 346 340 335 340 350 352 353 360 356
164 135 156 162 160 157 157 154 153 154 154 155 155 153 157 158 153 159 146 133 107 82 32 7 359 6 359 349 360 7 4 355 352 353 355 346 351 354 356 353 351 353 354
153 151 150 149 151 149 150 146 148 150 152 153 152 163 156 153 149 145 144 132 129 128 110 44 348 4 4 357 13 10 358 351 346 354 354 355 356 357 350 351 347 350 341
146 143 155 149 144 145 147 148 148 151 152 154 158 154 153 152 155 154 151 152 148 135 124 144 339 12 11 11 4 6 3 347 350 6 352 356 353 354 347 347 350 348 339
141 140 138 139 141 145 148 149 150 150 149 149 151 151 154 150 154 156 141 115 102 81 57 44 30 21 18 13 14 11 13 7 16 11 358 356 353 353 350 347 347 341 344
139 140 140 141 144 148 146 145 145 145 146 148 146 147 151 145 143 132 98 97 99 76 56 42 35 28 25 20 25 26 32 31 27 22 4 358 350 347 344 349 356 347 345
139 140 144 148 146 143 143 141 141 144 144 142 140 142 144 140 134 122 102 72 56 33 31 40 33 32 29 29 30 27 26 24 18 9 2 355 1 349 3 7 1 350 345
147 147 149 147 144 141 138 138 144 145 143 141 143 142 141 138 131 126 137 123 113 126 78 31 38 40 37 34 32 26 21 19 16 8 4 1 2 356 12 10 8 0 351
147 147 143 141 138 138 140 141 143 144 139 135 135 135 136 136 137 143 140 162 164 123 70 55 47 40 35 26 25 18 16 21 17 8 5 3 359 1 11 10 8 353 3
143 136 136 136 137 140 139 138 134 132 132 131 131 128 126 125 125 125 121 119 104 83 60 50 45 38 35 28 20 13 7 18 15 9 4 1 355 5 12 10 6 356 8
135 132 136 136 132 128 126 126 126 128 126 126 125 121 117 121 118 97 88 83 78 79 69 49 43 40 31 29 22 18 4 16 18 6 3 359 2 15 12 9 1 358 1
133 129 128 129 131 129 126 125 123 120 119 120 122 138 153 140 130 135 132 107 100 84 68 60 50 42 33 30 21 22 3 14 17 3 2 1 7 19 13 7 0 359 0
132 131 133 133 134 134 133 128 124 131 138 145 150 138 134 137 130 122 111 101 91 81 73 58 50 41 33 25 21 20 6 8 12 2 4 2 10 20 11 4 1 1 360
137 140 137 133 139 138 138 139 138 144 145 134 125 120 119 116 111 104 98 94 85 77 68 59 47 37 30 26 21 15 10 0 8 4 4 6 13 20 11 2 359 1 360
136 136 138 143 142 140 140 140 143 142 133 123 120 116 114 110 104 92 83 78 71 65 61 55 48 34 31 25 21 10 7 356 5 5 4 8 18 20 7 2 1 3 358
129 135 134 135 138 135 135 134 135 132 125 118 115 110 107 101 94 87 83 85 78 69 54 51 43 35 27 25 19 11 4 354 5 8 7 12 19 19 4 0 5 3 358
123 121 122 115 113 117 119 124 126 123 118 111 107 101 96 89 88 94 89 78 74 71 62 45 40 33 24 19 19 9 356 2 8 10 9 13 19 18 4 358 7 359 359
128 116 113 119 121 119 115 107 109 119 122 129 134 131 116 120 110 96 83 81 74 60 67 50 35 27 28 13 18 1 5 7 9 9 9 12 20 13 4 358 7 358 359
116 123 123 122 123 125 124 127 134 136 133 135 135 123 115 114 105 97 92 85 68 57 52 59 38 17 30 4 9 6 8 8 8 8 8 14 20 14 358 357 7 359 358
124 122 120 124 129 126 125 128 125 126 129 124 119 116 117 110 105 97 89 81 67 60 47 40 35 18 31 352 9 7 6 6 5 6 6 14 19 14 350 358 7 358 357
126 127 126 122 122 126 128 129 128 129 128 130 130 127 121 116 104 93 82 69 65 50 44 23 24 15 12 352 6 4 3 1 1 5 6 9 17 3 343 359 6 358 357
118 119 125 126 131 134 134 130 132 132 130 127 123 120 114 108 103 92 84 69 52 38 36 20 4 20 347 344 354 356 358 0 2 1 3 4 12 351 345 4 1 356 1
124 125 133 135 130 132 134 134 133 132 127 127 125 121 120 114 102 93 75 72 65 34 25 15 2 16 327 339 348 354 357 359 1 0 358 9 359 346 351 5 356 357 1